When you browse on this site, cookies collect data to enhance your experience and personalize the content and advertising you see.
Visit our Privacy Policy to learn more. By continuing to use the site, you agree to this use of cookies and data.
  • Em Portugal
  • Lista de países
  • Para 7 dias
  • Temperatura da água
  • Mapas de satélite
  • Mapa do tempo
  • Widgets de tempo
  • user-avatar
    Iniciar Sessão

    Previsão horária em Rychowko

    Hoje, 16 Fevereiro, Sábado

    Tempo Temperatura Precipitação Vento Pressão Humidade
    00:00 +2°C° 0 mm 3 m/s 766 mmHg 80%
    01:00 +2°C° 0 mm 3 m/s 765 mmHg 77%
    02:00 +2°C° 0 mm 3 m/s 765 mmHg 76%
    03:00 +2°C° 0 mm 3 m/s 765 mmHg 75%
    04:00 +2°C° 0 mm 3 m/s 764 mmHg 74%
    05:00 +2°C° 0 mm 3 m/s 764 mmHg 74%
    06:00 +1°C° 0 mm 4 m/s 763 mmHg 74%
    07:00 0°C° 0 mm 4 m/s 763 mmHg 74%
    08:00 +3°C° 0 mm 4 m/s 763 mmHg 70%
    09:00 +3°C° 0 mm 5 m/s 763 mmHg 67%
    10:00 +5°C° 0 mm 5 m/s 762 mmHg 63%
    11:00 +7°C° 0 mm 5 m/s 762 mmHg 59%
    12:00 +8°C° 0 mm 5 m/s 762 mmHg 56%
    13:00 +9°C° 0 mm 6 m/s 762 mmHg 53%
    14:00 +9°C° 0 mm 5 m/s 761 mmHg 54%
    15:00 +9°C° 0 mm 5 m/s 761 mmHg 56%
    16:00 +10°C° 0 mm 4 m/s 761 mmHg 57%
    17:00 +8°C° 0 mm 4 m/s 760 mmHg 61%
    18:00 +7°C° 0 mm 4 m/s 760 mmHg 66%
    19:00 +5°C° 0 mm 4 m/s 760 mmHg 70%
    20:00 +5°C° 0 mm 4 m/s 760 mmHg 74%
    21:00 +5°C° 0 mm 4 m/s 760 mmHg 77%
    22:00 +4°C° 0 mm 4 m/s 760 mmHg 80%
    23:00 +4°C° 0 mm 4 m/s 760 mmHg 82%

    Amanhã, 17 Fevereiro, Domingo

    Tempo Temperatura Precipitação Vento Pressão Humidade
    00:00 +3°C° 0 mm 4 m/s 761 mmHg 84%
    01:00 +3°C° 0 mm 3 m/s 761 mmHg 86%
    02:00 +3°C° 0 mm 3 m/s 761 mmHg 88%
    03:00 +3°C° 0 mm 3 m/s 761 mmHg 89%
    04:00 +2°C° 0 mm 3 m/s 760 mmHg 91%
    05:00 +3°C° 0 mm 3 m/s 761 mmHg 92%
    06:00 +3°C° 0 mm 3 m/s 761 mmHg 93%
    07:00 +3°C° 0 mm 3 m/s 761 mmHg 94%
    08:00 +3°C° 0 mm 3 m/s 761 mmHg 94%
    09:00 +4°C° 0 mm 3 m/s 762 mmHg 93%
    10:00 +4°C° 0 mm 3 m/s 762 mmHg 93%
    11:00 +4°C° 0 mm 3 m/s 762 mmHg 92%
    12:00 +4°C° 0 mm 3 m/s 762 mmHg 90%
    13:00 +4°C° 0 mm 3 m/s 762 mmHg 89%
    14:00 +6°C° 0 mm 2 m/s 762 mmHg 88%
    15:00 +6°C° 0 mm 2 m/s 762 mmHg 88%
    16:00 +7°C° 0 mm 1 m/s 762 mmHg 88%
    17:00 +6°C° 0 mm 1 m/s 762 mmHg 90%
    18:00 +5°C° 0 mm 1 m/s 762 mmHg 92%
    19:00 +4°C° 0 mm 1 m/s 762 mmHg 95%
    20:00 +4°C° 0 mm 1 m/s 762 mmHg 94%
    21:00 +3°C° 0 mm 2 m/s 762 mmHg 94%
    22:00 +3°C° 0 mm 2 m/s 762 mmHg 94%
    23:00 +3°C° 0 mm 2 m/s 762 mmHg 94%

    Depois de amanhã, 18 Fevereiro, Segunda-feira

    Tempo Temperatura Precipitação Vento Pressão Humidade
    00:00 +2°C° 0 mm 3 m/s 761 mmHg 94%
    01:00 +2°C° 0 mm 3 m/s 761 mmHg 94%
    02:00 +2°C° 0 mm 3 m/s 761 mmHg 94%
    03:00 +2°C° 0 mm 3 m/s 761 mmHg 94%
    04:00 +2°C° 0 mm 3 m/s 760 mmHg 93%
    05:00 +1°C° 0 mm 4 m/s 760 mmHg 92%
    06:00 +1°C° 0 mm 4 m/s 760 mmHg 91%
    07:00 +1°C° 0 mm 4 m/s 760 mmHg 90%
    08:00 +3°C° 0 mm 4 m/s 759 mmHg 83%
    09:00 +3°C° 0 mm 5 m/s 759 mmHg 77%
    10:00 +5°C° 0 mm 5 m/s 759 mmHg 71%
    11:00 +6°C° 0 mm 5 m/s 759 mmHg 67%
    12:00 +7°C° 0 mm 5 m/s 759 mmHg 64%
    13:00 +8°C° 0 mm 5 m/s 759 mmHg 60%
    14:00 +8°C° 0 mm 4 m/s 758 mmHg 61%
    15:00 +8°C° 0 mm 4 m/s 758 mmHg 62%
    16:00 +8°C° 0 mm 4 m/s 758 mmHg 63%
    17:00 +7°C° 0 mm 4 m/s 757 mmHg 67%
    18:00 +6°C° 0 mm 4 m/s 757 mmHg 71%
    19:00 +5°C° 0 mm 4 m/s 757 mmHg 75%
    20:00 +4°C° 0 mm 4 m/s 757 mmHg 76%
    21:00 +4°C° 0 mm 4 m/s 757 mmHg 78%
    22:00 +4°C° 0 mm 4 m/s 756 mmHg 79%
    23:00 +3°C° 0 mm 4 m/s 756 mmHg 80%

    19 Fevereiro, Terça-feira

    Tempo Temperatura Precipitação Vento Pressão Humidade
    00:00 +3°C° 0 mm 4 m/s 756 mmHg 81%
    01:00 +3°C° 0 mm 4 m/s 755 mmHg 82%
    02:00 +3°C° 0 mm 4 m/s 755 mmHg 84%
    03:00 +3°C° 0 mm 4 m/s 754 mmHg 85%
    04:00 +2°C° 0 mm 5 m/s 754 mmHg 87%
    05:00 +1°C° 0 mm 5 m/s 753 mmHg 88%
    06:00 +1°C° 0 mm 5 m/s 753 mmHg 88%
    07:00 +1°C° 0 mm 5 m/s 753 mmHg 89%
    08:00 +2°C° 0 mm 6 m/s 753 mmHg 86%
    09:00 +3°C° 0 mm 6 m/s 753 mmHg 82%
    10:00 +4°C° 0 mm 6 m/s 753 mmHg 79%
    11:00 +4°C° 0.4 mm 6 m/s 753 mmHg 81%
    12:00 +4°C° 0.4 mm 6 m/s 753 mmHg 83%
    13:00 +4°C° 0.4 mm 6 m/s 753 mmHg 85%
    14:00 +5°C° 0.1 mm 5 m/s 753 mmHg 83%
    15:00 +6°C° 0.1 mm 5 m/s 753 mmHg 81%
    16:00 +6°C° 0.1 mm 5 m/s 753 mmHg 79%
    17:00 +6°C° 0.1 mm 5 m/s 754 mmHg 78%
    18:00 +6°C° 0.1 mm 5 m/s 754 mmHg 78%
    19:00 +5°C° 0.1 mm 5 m/s 754 mmHg 78%
    20:00 +5°C° 0.1 mm 5 m/s 754 mmHg 80%
    21:00 +3°C° 0.1 mm 5 m/s 754 mmHg 82%
    22:00 +3°C° 0.1 mm 5 m/s 754 mmHg 84%
    23:00 +3°C° 0 mm 5 m/s 754 mmHg 85%

    20 Fevereiro, Quarta-feira

    Tempo Temperatura Precipitação Vento Pressão Humidade
    00:00 +2°C° 0 mm 6 m/s 754 mmHg 87%
    01:00 +2°C° 0 mm 6 m/s 754 mmHg 88%
    02:00 +2°C° 0 mm 6 m/s 754 mmHg 89%
    03:00 +1°C° 0 mm 6 m/s 754 mmHg 89%
    04:00 +1°C° 0 mm 6 m/s 754 mmHg 89%
    05:00 0°C° 0.1 mm 7 m/s 754 mmHg 87%
    06:00 0°C° 0.1 mm 7 m/s 754 mmHg 86%
    07:00 0°C° 0.1 mm 7 m/s 755 mmHg 84%
    08:00 +2°C° 0 mm 7 m/s 755 mmHg 83%
    09:00 +2°C° 0 mm 7 m/s 755 mmHg 82%
    10:00 +2°C° 0 mm 7 m/s 756 mmHg 81%
    11:00 +3°C° 0 mm 7 m/s 756 mmHg 78%
    12:00 +4°C° 0 mm 7 m/s 756 mmHg 75%
    13:00 +5°C° 0 mm 7 m/s 757 mmHg 72%
    14:00 +4°C° 0.1 mm 6 m/s 757 mmHg 77%
    15:00 +4°C° 0.1 mm 6 m/s 757 mmHg 81%
    16:00 +5°C° 0.1 mm 5 m/s 757 mmHg 86%
    17:00 +5°C° 0.2 mm 4 m/s 757 mmHg 87%
    18:00 +5°C° 0.2 mm 4 m/s 758 mmHg 88%
    19:00 +5°C° 0.2 mm 3 m/s 758 mmHg 90%
    20:00 +5°C° 0.5 mm 3 m/s 758 mmHg 91%
    21:00 +5°C° 0.5 mm 3 m/s 758 mmHg 92%
    22:00 +5°C° 0.5 mm 3 m/s 758 mmHg 93%
    23:00 +5°C° 0.4 mm 3 m/s 758 mmHg 93%

    21 Fevereiro, Quinta-feira

    Tempo Temperatura Precipitação Vento Pressão Humidade
    00:00 +5°C° 0.4 mm 3 m/s 758 mmHg 93%
    01:00 +5°C° 0.4 mm 3 m/s 758 mmHg 93%
    02:00 +4°C° 0.3 mm 3 m/s 758 mmHg 94%
    03:00 +4°C° 0.3 mm 3 m/s 757 mmHg 94%
    04:00 +4°C° 0.3 mm 3 m/s 757 mmHg 94%
    05:00 +4°C° 0.5 mm 3 m/s 757 mmHg 95%
    06:00 +4°C° 0.5 mm 3 m/s 757 mmHg 95%
    07:00 +4°C° 0.5 mm 3 m/s 757 mmHg 95%
    08:00 +4°C° 1 mm 3 m/s 757 mmHg 95%
    09:00 +4°C° 1 mm 3 m/s 757 mmHg 95%
    10:00 +4°C° 1 mm 3 m/s 757 mmHg 95%
    11:00 +5°C° 0.7 mm 3 m/s 757 mmHg 95%
    12:00 +5°C° 0.7 mm 3 m/s 758 mmHg 94%
    13:00 +6°C° 0.7 mm 2 m/s 758 mmHg 94%
    14:00 +6°C° 0.2 mm 2 m/s 758 mmHg 95%
    15:00 +6°C° 0.2 mm 2 m/s 758 mmHg 96%
    16:00 +7°C° 0.2 mm 1 m/s 758 mmHg 97%
    17:00 +6°C° 0 mm 2 m/s 759 mmHg 96%
    18:00 +4°C° 0 mm 3 m/s 760 mmHg 95%
    19:00 +4°C° 0 mm 3 m/s 760 mmHg 94%
    20:00 +3°C° 0 mm 4 m/s 761 mmHg 90%
    21:00 +1°C° 0 mm 5 m/s 762 mmHg 87%
    22:00 0°C° 0 mm 5 m/s 762 mmHg 83%
    23:00 -1°C° 0 mm 6 m/s 763 mmHg 79%
    Mostrar mais